Salt Lake City International Airport
KSLC : now visible

Airfield :











YOU CAN JOIN US ON...

 
LOGIN :

Register | Disclaimer

   EN    FR    IT 

 









Legend :    VFR   Marginal VFR   IFR   Intensive IFR   Very Intensive IFR
Visi :
Ceiling :
>= 8 km
>= 3000ft
5 to 8 km
1000 to 3000 ft
1500m to 5 km
500 to 1000 ft
800 to 1500m
200 to 500 ft
< 800m
< 200 ft
Symbols :   Thunderstorms  Fog  Heavy snow  Heavy precipitations  Wind > 20 kt






- Airport Elevation : 4227 ft
- IATA code : SLC


KSLC - Salt Lake City International

CURRENT METAR :
  • 080254Z 16004KT 10SM CLR 04/M01 A3011 RMK AO2 SLP200 T00391006 53017

EXPIRED METARs :
  • 080154Z 27003KT 10SM CLR 04/M01 A3009 RMK AO2 SLP193 T00391011
  • 080054Z 00000KT 10SM FEW200 06/M02 A3007 RMK AO2 SLP182 T00561022

TAF KSLC
Valid from the 08 at 03:00 until the 09 at 06:00 UTC


080241Z 0803/0906 15005KT P6SM FEW100 FEW200
FM081500 17010KT P6SM SCT070 BKN090
FM081900 17012G22KT P6SM OVC050
FM090000 15010KT P6SM VCSH OVC040
KZLC FIR / North America



MET'MAP, your aeronautical weather chart ! - Copyright ORBIFLY December 2007 - Disclaimer

ORBIFLY MET'MAP TEAM :

Programming & Development : Alexandra Zaïnal
Concept & original design : Baudouin d'Aumeries
Assistance for programming : Marc-Olivier Méhu
Technical & hardware support : Manuel Goepfert

Contact : metmap@orbifly.com




SOURCES & CREDITS :

   NOAA       Earth
Advisory